QB50P1

Last updated on Thu Oct 30 2025 00:03:10 GMT+0000 (Coordinated Universal Time)

1 40025U 14033R 25302.20187784 .00014233 00000+0 80344-3 0 9995 2 40025 98.0961 293.0167 0007860 303.3302 56.7174 15.13238533618031
UTC large
Height (km)
Speed (km/s)
/
Latitude / Longitude
Inclination (degrees)
Orbital Period (minutes)
Azimuth
Elevation
Range (km)
Doppler Factor

Next 0 passes for location: London (51.5072 / 0.1276)

Sorry there are no passes over London.